This demonstration page uses our WeatherBlox Daily Observations layout. Learn more.

Left ArrowRight Arrow

Hourly Observations for December 18, 2021

Temp ( °F °C ) Dew Point ( °F °C ) Humidity (%) Winds ( mph kmh ) Pressure ( in mb ) Visibility ( mi km ) Precip ( " mm )
12:51 am 00:51 Clear 34 1.1 22 -5.6 61 61 VRB 3 6 30.05 1018 10 16 0.00 0.00
1:51 am 01:51 Clear 31 -0.6 22 -5.6 69 69 NNE 3 6 30.06 1018 10 16 0.00 0.00
2:51 am 02:51 Clear 28 -2.2 21 -6.1 75 75 Calm 30.07 1018 10 16 0.00 0.00
3:51 am 03:51 Clear 29 -1.7 21 -6.1 72 72 ENE 3 6 30.08 1019 10 16 0.00 0.00
4:51 am 04:51 Clear 32 0 23 -5 69 69 Calm 30.08 1019 10 16 0.00 0.00
5:51 am 05:51 Clear 26 -3.3 20 -6.7 78 78 Calm 30.12 1020 10 16 0.00 0.00
6:51 am 06:51 Clear 26 -3.3 19 -7.2 75 75 Calm 30.15 1021 10 16 0.00 0.00
7:51 am 07:51 Sunny 26 -3.3 19 -7.2 75 75 ESE 3 6 30.18 1022 10 16 0.00 0.00
8:51 am 08:51 Sunny 35 1.7 23 -5 61 61 ESE 3 6 30.19 1023 10 16 0.00 0.00
9:51 am 09:51 Sunny 42 5.6 23 -5 47 47 Calm 30.19 1023 10 16 0.00 0.00
10:51 am 10:51 Sunny 47 8.3 21 -6.1 36 36 Calm 30.18 1022 10 16 0.00 0.00
11:51 am 11:51 Sunny 54 12.2 20 -6.7 26 26 SE 7 11 30.14 1021 10 16 0.00 0.00
12:51 pm 12:51 Sunny 55 12.8 22 -5.6 28 28 VRB 5 7 30.11 1020 10 16 0.00 0.00
1:51 pm 13:51 Sunny 57 13.9 22 -5.6 26 26 SSE 5 7 30.09 1019 10 16 0.00 0.00
2:51 pm 14:51 Sunny 58 14.4 23 -5 26 26 S 8 13 30.08 1019 10 16 0.00 0.00
3:51 pm 15:51 Sunny 59 15 23 -5 25 25 SSE 6 9 30.07 1018 10 16 0.00 0.00
4:51 pm 16:51 Sunny 57 13.9 22 -5.6 26 26 SE 7 11 30.07 1018 10 16 0.00 0.00
5:51 pm 17:51 Clear 50 10 21 -6.1 32 32 SE 6 9 30.11 1020 10 16 0.00 0.00
6:51 pm 18:51 Clear 47 8.3 21 -6.1 36 36 SSE 6 9 30.14 1021 10 16 0.00 0.00
7:51 pm 19:51 Clear 46 7.8 24 -4.4 42 42 SE 9 15 30.16 1021 10 16 0.00 0.00
8:51 pm 20:51 Clear 42 5.6 24 -4.4 49 49 ESE 5 7 30.17 1022 10 16 0.00 0.00
9:51 pm 21:51 Clear 41 5 24 -4.4 51 51 SSE 7 11 30.17 1022 10 16 0.00 0.00
10:51 pm 22:51 Clear 38 3.3 22 -5.6 52 52 ESE 6 9 30.18 1022 10 16 0.00 0.00
11:51 pm 23:51 Clear 41 5 24 -4.4 51 51 SE 10 17 30.17 1022 10 16 0.00 0.00

Powered by AerisWeather